Station Historical Data
Daily Summary for August 31, 2017 Units:  Metric    English   Both
« Previous Day
Next Day »
Daily Weekly Monthly Yearly Custom
  High: Low: Average:
Temperature: 20.6 °C 11.4 °C 17.3 °C
Dew Point: 17.5 °C 6.6 °C 12.2 °C
Humidity: 90% 50% 73%
Wind Speed: 12.9km/h 0km/h 3.9km/h
Wind Gust: 24.1km/h - -
Wind- - WSW
Pressure: 1021.6 hPa 1013.4 hPa -
Precipitation: 0 mm    
Historical Graphs
 
 
Tabular Data for August 31, 2017
Time Temperature Dew Point Pressure Wind Wind Speed Wind Gust Humidity Rainfall Rate (Hourly)
00:04 20.6 °C 17.4 °C 1013.4 hPa West 3.2 km/h 8 km/h 82% 0 mm
00:09 20.5 °C 17.5 °C 1013.4 hPa West 3.2 km/h 9.7 km/h 83% 0 mm
00:14 20.4 °C 17.4 °C 1013.4 hPa West 4.8 km/h 9.7 km/h 83% 0 mm
00:19 20.4 °C 17.3 °C 1013.4 hPa WSW 4.8 km/h 9.7 km/h 82% 0 mm
00:24 20.3 °C 17.2 °C 1013.8 hPa West 4.8 km/h 9.7 km/h 82% 0 mm
00:29 20.2 °C 17.1 °C 1013.8 hPa WNW 3.2 km/h 11.3 km/h 82% 0 mm
00:34 20.1 °C 17.1 °C 1013.4 hPa West 3.2 km/h 11.3 km/h 83% 0 mm
00:39 20 °C 17 °C 1013.4 hPa West 1.6 km/h 12.9 km/h 83% 0 mm
00:44 19.9 °C 16.9 °C 1013.8 hPa WNW 12.9 km/h 12.9 km/h 83% 0 mm
00:49 19.8 °C 16.7 °C 1013.4 hPa West 4.8 km/h 12.9 km/h 82% 0 mm
00:54 19.8 °C 16.6 °C 1013.4 hPa West 6.4 km/h 11.3 km/h 82% 0 mm
00:59 19.7 °C 16.5 °C 1013.4 hPa West 1.6 km/h 9.7 km/h 82% 0 mm
01:04 19.7 °C 16.5 °C 1013.4 hPa West 4.8 km/h 11.3 km/h 82% 0 mm
01:09 19.6 °C 16.2 °C 1013.4 hPa West 3.2 km/h 11.3 km/h 81% 0 mm
01:14 19.5 °C 16.2 °C 1013.4 hPa West 1.6 km/h 8 km/h 81% 0 mm
01:19 19.4 °C 16.1 °C 1013.4 hPa West 1.6 km/h 8 km/h 81% 0 mm
01:24 19.3 °C 16.1 °C 1013.4 hPa Calm   9.7 km/h 82% 0 mm
01:29 19.2 °C 16.1 °C 1013.4 hPa Calm     82% 0 mm
01:34 19.1 °C 15.9 °C 1013.4 hPa Calm   6.4 km/h 82% 0 mm
01:39 19 °C 15.8 °C 1013.4 hPa West 3.2 km/h 9.7 km/h 82% 0 mm
01:44 18.9 °C 15.7 °C 1013.4 hPa West 1.6 km/h 9.7 km/h 82% 0 mm
01:49 18.8 °C 15.7 °C 1013.4 hPa West 1.6 km/h 8 km/h 82% 0 mm
01:54 18.7 °C 15.6 °C 1013.4 hPa West 3.2 km/h 8 km/h 82% 0 mm
01:59 18.7 °C 15.6 °C 1013.4 hPa West 1.6 km/h 8 km/h 82% 0 mm
02:04 18.7 °C 15.6 °C 1013.4 hPa Calm   11.3 km/h 82% 0 mm
02:09 18.6 °C 15.4 °C 1013.4 hPa West 3.2 km/h 11.3 km/h 82% 0 mm
02:14 18.6 °C 15.6 °C 1013.4 hPa Calm   9.7 km/h 83% 0 mm
02:19 18.4 °C 15.5 °C 1013.4 hPa WNW 4.8 km/h 8 km/h 83% 0 mm
02:24 18.4 °C 15.4 °C 1013.4 hPa Calm   8 km/h 83% 0 mm
02:29 18.3 °C 15.3 °C 1013.8 hPa WNW 1.6 km/h 8 km/h 83% 0 mm
02:34 18.2 °C 15.2 °C 1013.8 hPa Calm   9.7 km/h 83% 0 mm
02:39 18.2 °C 15.4 °C 1013.8 hPa West 1.6 km/h 9.7 km/h 84% 0 mm
02:44 18.1 °C 15.3 °C 1013.8 hPa West 3.2 km/h 9.7 km/h 84% 0 mm
02:49 18.1 °C 15.3 °C 1013.8 hPa West 3.2 km/h 9.7 km/h 84% 0 mm
02:54 18 °C 15.3 °C 1013.4 hPa West 1.6 km/h 9.7 km/h 84% 0 mm
02:59 17.9 °C 15.2 °C 1013.4 hPa West 1.6 km/h 6.4 km/h 84% 0 mm
03:04 17.8 °C 15.2 °C 1013.4 hPa Calm   6.4 km/h 85% 0 mm
03:09 17.7 °C 15.2 °C 1013.4 hPa Calm   1.6 km/h 85% 0 mm
03:14 17.6 °C 15 °C 1013.4 hPa Calm   3.2 km/h 85% 0 mm
03:19 17.4 °C 15.1 °C 1013.4 hPa Calm   3.2 km/h 86% 0 mm
03:24 17.3 °C 14.9 °C 1013.4 hPa Calm     86% 0 mm
03:29 17.3 °C 15.2 °C 1013.4 hPa Calm   3.2 km/h 87% 0 mm
03:34 17.3 °C 15.1 °C 1013.4 hPa Calm     87% 0 mm
03:39 17.2 °C 15.1 °C 1013.8 hPa Calm   4.8 km/h 87% 0 mm
03:44 17.2 °C 15 °C 1013.4 hPa Calm   3.2 km/h 87% 0 mm
03:49 17.2 °C 15.2 °C 1013.8 hPa Calm   6.4 km/h 88% 0 mm
03:54 17.3 °C 15.3 °C 1013.8 hPa NW 1.6 km/h 8 km/h 88% 0 mm
03:59 17.3 °C 15.3 °C 1013.8 hPa NW 1.6 km/h 8 km/h 88% 0 mm
04:04 17.4 °C 15.4 °C 1013.8 hPa NW 1.6 km/h 6.4 km/h 88% 0 mm
04:09 17.5 °C 15.5 °C 1013.8 hPa Calm   4.8 km/h 88% 0 mm
04:14 17.6 °C 15.4 °C 1013.8 hPa NW 3.2 km/h 6.4 km/h 87% 0 mm
04:19 17.6 °C 15.4 °C 1013.8 hPa WNW 6.4 km/h 11.3 km/h 87% 0 mm
04:24 17.7 °C 15.5 °C 1013.8 hPa NW 3.2 km/h 11.3 km/h 87% 0 mm
04:29 17.7 °C 15.3 °C 1013.4 hPa NW 3.2 km/h 9.7 km/h 86% 0 mm
04:34 17.7 °C 15.3 °C 1013.8 hPa Calm   9.7 km/h 86% 0 mm
04:39 17.8 °C 15.4 °C 1013.8 hPa WNW 3.2 km/h 6.4 km/h 86% 0 mm
04:44 17.8 °C 15.4 °C 1013.8 hPa WNW 3.2 km/h 4.8 km/h 86% 0 mm
04:49 17.8 °C 15.4 °C 1013.8 hPa NNW 1.6 km/h 6.4 km/h 86% 0 mm
04:54 17.8 °C 15.4 °C 1013.8 hPa NW 1.6 km/h 8 km/h 86% 0 mm
04:59 17.9 °C 15.5 °C 1013.8 hPa NW 3.2 km/h 11.3 km/h 86% 0 mm
05:04 17.9 °C 15.6 °C 1013.8 hPa NW 4.8 km/h 12.9 km/h 86% 0 mm
05:09 17.9 °C 15.6 °C 1013.8 hPa WNW 1.6 km/h 8 km/h 86% 0 mm
05:14 17.9 °C 15.6 °C 1013.8 hPa NNW 6.4 km/h 11.3 km/h 86% 0 mm
05:19 17.9 °C 15.7 °C 1013.8 hPa Calm   9.7 km/h 87% 0 mm
05:24 17.8 °C 15.7 °C 1013.8 hPa NNW 3.2 km/h 9.7 km/h 87% 0 mm
05:29 17.7 °C 15.6 °C 1013.8 hPa NNW 1.6 km/h 9.7 km/h 87% 0 mm
05:34 17.7 °C 15.5 °C 1013.8 hPa NNW 1.6 km/h 9.7 km/h 87% 0 mm
05:39 17.6 °C 15.6 °C 1013.8 hPa NNW 3.2 km/h 9.7 km/h 88% 0 mm
05:44 17.4 °C 15.4 °C 1014.1 hPa NNW 4.8 km/h 8 km/h 88% 0.25 mm
05:49 17.4 °C 15.4 °C 1014.1 hPa Calm   6.4 km/h 88% 0.25 mm
05:54 17.4 °C 15.6 °C 1014.1 hPa NNW 1.6 km/h 6.4 km/h 89% 0.25 mm
05:59 17.3 °C 15.5 °C 1014.1 hPa NNW 1.6 km/h 8 km/h 89% 0.25 mm
06:04 17.3 °C 15.5 °C 1014.1 hPa NW 4.8 km/h 8 km/h 89% 0.51 mm
06:09 17.3 °C 15.7 °C 1014.1 hPa Calm   8 km/h 90% 0.51 mm
06:14 17.3 °C 15.7 °C 1014.1 hPa Calm     90% 0.51 mm
06:19 17.3 °C 15.7 °C 1014.1 hPa Calm   4.8 km/h 90% 0.51 mm
06:24 17.3 °C 15.7 °C 1014.4 hPa NNW 1.6 km/h 6.4 km/h 90% 0.51 mm
06:29 17.2 °C 15.6 °C 1014.8 hPa NNW 3.2 km/h 16.1 km/h 90% 0.51 mm
06:34 17.1 °C 15.2 °C 1014.8 hPa North 4.8 km/h 16.1 km/h 89% 0.51 mm
06:39 16.9 °C 15.2 °C 1015.1 hPa North 4.8 km/h 14.5 km/h 90% 0.51 mm
06:44 16.7 °C 15.1 °C 1015.1 hPa North 3.2 km/h 12.9 km/h 90% 0.25 mm
06:49 16.6 °C 14.9 °C 1015.1 hPa NNW 3.2 km/h 11.3 km/h 90% 0.25 mm
06:54 16.6 °C 14.9 °C 1015.1 hPa NNW 3.2 km/h 11.3 km/h 90% 0.25 mm
06:59 16.6 °C 14.9 °C 1015.1 hPa NNW 3.2 km/h 6.4 km/h 90% 0.25 mm
07:04 16.5 °C 14.8 °C 1015.5 hPa NNW 1.6 km/h 11.3 km/h 90% 0 mm
07:09 16.5 °C 14.8 °C 1015.5 hPa NE 8 km/h 8 km/h 90% 0 mm
07:14 16.5 °C 14.8 °C 1015.5 hPa NNE 3.2 km/h 9.7 km/h 90% 0 mm
07:19 16.4 °C 14.8 °C 1015.5 hPa NNE 3.2 km/h 4.8 km/h 90% 0 mm
07:24 16.3 °C 14.4 °C 1015.5 hPa NNE 8 km/h 11.3 km/h 89% 0 mm
07:29 15.9 °C 14.1 °C 1015.8 hPa NNE 3.2 km/h 11.3 km/h 89% 0 mm
07:34 15.9 °C 14.1 °C 1015.8 hPa NNE 3.2 km/h 9.7 km/h 89% 0 mm
07:39 15.8 °C 13.8 °C 1015.8 hPa NNE 3.2 km/h 12.9 km/h 88% 0 mm
07:44 15.9 °C 13.7 °C 1015.8 hPa NNE 3.2 km/h 12.9 km/h 87% 0 mm
07:49 16 °C 13.7 °C 1016.1 hPa NNE 3.2 km/h 8 km/h 86% 0 mm
07:54 16 °C 13.7 °C 1016.1 hPa North 3.2 km/h 9.7 km/h 86% 0 mm
07:59 16.2 °C 13.8 °C 1016.1 hPa NNE 3.2 km/h 6.4 km/h 86% 0 mm
08:04 16.1 °C 13.8 °C 1016.1 hPa NNE 3.2 km/h 8 km/h 86% 0 mm
08:09 16.2 °C 13.8 °C 1016.1 hPa NE 6.4 km/h 9.7 km/h 86% 0 mm
08:14 16.2 °C 13.9 °C 1016.1 hPa NE 1.6 km/h 11.3 km/h 86% 0 mm
08:19 16.3 °C 13.8 °C 1016.5 hPa North 3.2 km/h 6.4 km/h 85% 0 mm
08:24 16.3 °C 13.8 °C 1016.5 hPa North 1.6 km/h 4.8 km/h 85% 0 mm
08:29 16.2 °C 13.7 °C 1016.5 hPa North 1.6 km/h 4.8 km/h 85% 0 mm
08:34 16.3 °C 13.8 °C 1016.5 hPa North 3.2 km/h 12.9 km/h 85% 0 mm
08:39 16.7 °C 14.4 °C 1016.5 hPa North 3.2 km/h 12.9 km/h 86% 0 mm
08:44 16.8 °C 14.1 °C 1016.8 hPa NNE 3.2 km/h 11.3 km/h 84% 0 mm
08:49 16.9 °C 14.2 °C 1016.8 hPa NNE 3.2 km/h 11.3 km/h 84% 0 mm
08:54 16.9 °C 14.1 °C 1016.8 hPa NNE 3.2 km/h 12.9 km/h 83% 0 mm
08:59 17.1 °C 14.2 °C 1017.2 hPa NNW 4.8 km/h 19.3 km/h 83% 0 mm
09:04 17.1 °C 13.8 °C 1017.2 hPa NNW 4.8 km/h 19.3 km/h 81% 0 mm
09:09 17.1 °C 13.9 °C 1017.2 hPa NNW 4.8 km/h 12.9 km/h 82% 0 mm
09:14 17.6 °C 14.4 °C 1017.2 hPa North 3.2 km/h 11.3 km/h 82% 0 mm
09:19 18 °C 14.5 °C 1017.2 hPa NNW 1.6 km/h 8 km/h 80% 0 mm
09:24 18.2 °C 14.3 °C 1017.2 hPa NNW 3.2 km/h 14.5 km/h 78% 0 mm
09:29 18.2 °C 13.9 °C 1017.2 hPa NE 8 km/h 14.5 km/h 76% 0 mm
09:34 18 °C 13.7 °C 1017.5 hPa NNE 4.8 km/h 16.1 km/h 76% 0 mm
09:39 17.9 °C 13.4 °C 1017.5 hPa ENE 4.8 km/h 11.3 km/h 75% 0 mm
09:44 18.1 °C 13.8 °C 1017.5 hPa NE 6.4 km/h 9.7 km/h 76% 0 mm
09:49 17.8 °C 13.3 °C 1017.5 hPa NNE 3.2 km/h 12.9 km/h 75% 0 mm
09:54 17.5 °C 13.2 °C 1017.5 hPa Calm   6.4 km/h 76% 0 mm
09:59 17.6 °C 13.5 °C 1017.5 hPa Calm   6.4 km/h 77% 0 mm
10:04 17.7 °C 13.4 °C 1017.8 hPa NNE 1.6 km/h 6.4 km/h 76% 0 mm
10:09 17.6 °C 13.3 °C 1017.8 hPa NE 3.2 km/h 16.1 km/h 76% 0 mm
10:14 17.6 °C 13.6 °C 1017.8 hPa NE 4.8 km/h 16.1 km/h 77% 0 mm
10:19 17.9 °C 14 °C 1017.8 hPa NE 3.2 km/h 12.9 km/h 78% 0 mm
10:24 17.7 °C 13.4 °C 1017.8 hPa NNW 1.6 km/h 6.4 km/h 76% 0 mm
10:29 17.5 °C 13.4 °C 1017.8 hPa North 3.2 km/h 6.4 km/h 77% 0 mm
10:34 17.3 °C 13.4 °C 1017.8 hPa Calm   8 km/h 78% 0 mm
10:39 17.2 °C 13.3 °C 1017.8 hPa NNE 3.2 km/h 8 km/h 78% 0 mm
10:44 17.3 °C 13.4 °C 1017.8 hPa North 3.2 km/h 12.9 km/h 78% 0 mm
10:49 17.5 °C 13.2 °C 1017.8 hPa NE 3.2 km/h 9.7 km/h 76% 0 mm
10:54 17.4 °C 13.4 °C 1017.8 hPa NNE 4.8 km/h 8 km/h 77% 0 mm
10:59 17.5 °C 13.4 °C 1017.8 hPa North 6.4 km/h 11.3 km/h 77% 0 mm
11:04 17.6 °C 13.1 °C 1017.8 hPa NNE 3.2 km/h 9.7 km/h 75% 0 mm
11:09 17.6 °C 13.3 °C 1017.8 hPa NNE 4.8 km/h 12.9 km/h 76% 0 mm
11:14 17.6 °C 13.3 °C 1017.8 hPa NE 4.8 km/h 12.9 km/h 76% 0 mm
11:19 17.8 °C 13.3 °C 1017.8 hPa NNE 4.8 km/h 12.9 km/h 75% 0 mm
11:24 17.8 °C 13.3 °C 1017.8 hPa North 3.2 km/h 9.7 km/h 75% 0 mm
11:29 17.8 °C 13.3 °C 1018.2 hPa North 6.4 km/h 12.9 km/h 75% 0 mm
11:34 18.1 °C 13.6 °C 1017.8 hPa NNE 1.6 km/h 12.9 km/h 75% 0 mm
11:39 18.1 °C 13.2 °C 1018.2 hPa NE 4.8 km/h 12.9 km/h 73% 0 mm
11:44 18.2 °C 13.2 °C 1017.8 hPa NNE 3.2 km/h 9.7 km/h 73% 0 mm
11:49 18.2 °C 12.7 °C 1017.8 hPa NNE 1.6 km/h 11.3 km/h 70% 0 mm
11:54 18.3 °C 12.8 °C 1017.8 hPa NNW 1.6 km/h 12.9 km/h 70% 0 mm
11:59 18.6 °C 13.2 °C 1018.2 hPa Calm   12.9 km/h 71% 0 mm
12:04 18.4 °C 12.7 °C 1017.8 hPa NE 3.2 km/h 12.9 km/h 69% 0 mm
12:09 18.2 °C 12.9 °C 1018.2 hPa North 8 km/h 14.5 km/h 71% 0 mm
12:14 18.4 °C 13.2 °C 1017.8 hPa NNW 6.4 km/h 14.5 km/h 72% 0 mm
12:19 18.4 °C 12.9 °C 1018.2 hPa North 4.8 km/h 11.3 km/h 70% 0 mm
12:24 18.7 °C 12.9 °C 1018.2 hPa North 4.8 km/h 11.3 km/h 69% 0.25 mm
12:29 19.4 °C 13.8 °C 1017.8 hPa North 6.4 km/h 14.5 km/h 70% 0.25 mm
12:34 19.2 °C 12.9 °C 1017.8 hPa North 6.4 km/h 14.5 km/h 67% 0.25 mm
12:39 18.6 °C 12.8 °C 1017.8 hPa North 3.2 km/h 12.9 km/h 69% 0.25 mm
12:44 18.9 °C 12.8 °C 1017.8 hPa North 4.8 km/h 16.1 km/h 68% 0.25 mm
12:49 19.4 °C 13.6 °C 1017.8 hPa North 3.2 km/h 11.3 km/h 69% 0.25 mm
12:54 19.8 °C 13.4 °C 1017.8 hPa North 3.2 km/h 14.5 km/h 67% 0.25 mm
12:59 18.9 °C 12.4 °C 1018.2 hPa North 8 km/h 12.9 km/h 66% 0.25 mm
13:04 18.4 °C 12.4 °C 1018.2 hPa North 4.8 km/h 12.9 km/h 68% 0.25 mm
13:09 19.1 °C 12.6 °C 1018.2 hPa North 4.8 km/h 14.5 km/h 66% 0.25 mm
13:14 19.2 °C 12.9 °C 1018.2 hPa North 6.4 km/h 14.5 km/h 67% 0.25 mm
13:19 19.4 °C 12.6 °C 1018.2 hPa North 6.4 km/h 16.1 km/h 65% 0.25 mm
13:24 19.3 °C 12.1 °C 1018.2 hPa NNW 6.4 km/h 16.1 km/h 63% 0 mm
13:29 18.6 °C 11.6 °C 1018.5 hPa NW 6.4 km/h 14.5 km/h 64% 0 mm
13:34 19.2 °C 12.5 °C 1018.5 hPa NW 6.4 km/h 16.1 km/h 65% 0 mm
13:39 20.2 °C 13.4 °C 1018.5 hPa NW 6.4 km/h 16.1 km/h 65% 0 mm
13:44 19.8 °C 12.3 °C 1018.2 hPa NW 4.8 km/h 14.5 km/h 62% 0 mm
13:49 19.2 °C 11.7 °C 1018.2 hPa NW 3.2 km/h 11.3 km/h 62% 0 mm
13:54 19.6 °C 12.8 °C 1018.2 hPa NNW 3.2 km/h 9.7 km/h 65% 0 mm
13:59 20.1 °C 12.3 °C 1018.2 hPa West 6.4 km/h 12.9 km/h 61% 0 mm
14:04 20.6 °C 13.1 °C 1018.2 hPa NW 8 km/h 17.7 km/h 62% 0 mm
14:09 20.5 °C 12.4 °C 1018.2 hPa NNW 12.9 km/h 19.3 km/h 60% 0 mm
14:14 19.6 °C 10.8 °C 1018.2 hPa North 6.4 km/h 16.1 km/h 57% 0 mm
14:19 18.6 °C 10.9 °C 1018.2 hPa NNW 8 km/h 16.1 km/h 61% 0 mm
14:24 19.6 °C 11.4 °C 1018.2 hPa NNW 6.4 km/h 12.9 km/h 59% 0 mm
14:29 19.8 °C 11.6 °C 1018.2 hPa North 6.4 km/h 12.9 km/h 59% 0 mm
14:34 20.1 °C 11.6 °C 1018.2 hPa North 6.4 km/h 14.5 km/h 58% 0 mm
14:39 19.8 °C 11.8 °C 1018.2 hPa NNW 8 km/h 12.9 km/h 60% 0 mm
14:44 20.1 °C 11.8 °C 1018.2 hPa NNW 6.4 km/h 17.7 km/h 59% 0 mm
14:49 20.1 °C 10.4 °C 1017.8 hPa NW 8 km/h 17.7 km/h 54% 0 mm
14:54 20.3 °C 11.2 °C 1017.8 hPa NNE 9.7 km/h 16.1 km/h 56% 0 mm
14:59 19.8 °C 11.3 °C 1017.8 hPa ENE 11.3 km/h 12.9 km/h 58% 0 mm
15:04 20.1 °C 11.6 °C 1017.8 hPa NW 4.8 km/h 16.1 km/h 58% 0 mm
15:09 19.8 °C 11 °C 1017.8 hPa NNW 1.6 km/h 16.1 km/h 57% 0 mm
15:14 20.2 °C 11.6 °C 1017.8 hPa NNW 6.4 km/h 16.1 km/h 58% 0 mm
15:19 20.1 °C 12.3 °C 1017.8 hPa NNW 6.4 km/h 20.9 km/h 61% 0 mm
15:24 19.2 °C 10.5 °C 1018.2 hPa NW 4.8 km/h 11.3 km/h 57% 0 mm
15:29 18.7 °C 10.5 °C 1018.2 hPa NNW 4.8 km/h 17.7 km/h 59% 0 mm
15:34 18.6 °C 9.7 °C 1017.8 hPa NNW 6.4 km/h 17.7 km/h 56% 0 mm
15:39 18.9 °C 10.5 °C 1018.2 hPa NNW 9.7 km/h 22.5 km/h 58% 0 mm
15:44 19.6 °C 10.3 °C 1018.2 hPa NW 8 km/h 22.5 km/h 55% 0 mm
15:49 18.6 °C 8.8 °C 1018.2 hPa NNW 8 km/h 20.9 km/h 53% 0 mm
15:54 18.6 °C 9.9 °C 1018.2 hPa NNW 6.4 km/h 19.3 km/h 57% 0 mm
15:59 19.8 °C 10.2 °C 1018.2 hPa NNW 4.8 km/h 19.3 km/h 54% 0 mm
16:04 19.9 °C 9.8 °C 1018.2 hPa NNW 4.8 km/h 16.1 km/h 52% 0 mm
16:09 19.9 °C 9.7 °C 1018.2 hPa North 3.2 km/h 16.1 km/h 52% 0 mm
16:14 19.2 °C 9.1 °C 1018.2 hPa NNW 8 km/h 19.3 km/h 52% 0 mm
16:19 18.9 °C 8.6 °C 1018.2 hPa NNW 8 km/h 19.3 km/h 51% 0 mm
16:24 18.6 °C 8.6 °C 1018.2 hPa North 9.7 km/h 14.5 km/h 52% 0 mm
16:29 19.3 °C 9.2 °C 1018.2 hPa NNW 8 km/h 11.3 km/h 52% 0 mm
16:34 19.3 °C 8.6 °C 1018.2 hPa NNW 4.8 km/h 16.1 km/h 50% 0 mm
16:39 19.4 °C 9.3 °C 1018.2 hPa North 9.7 km/h 14.5 km/h 52% 0 mm
16:44 19.8 °C 10.7 °C 1018.2 hPa WNW 1.6 km/h 16.1 km/h 56% 0 mm
16:49 20 °C 10.7 °C 1018.2 hPa NNW 4.8 km/h 16.1 km/h 55% 0 mm
16:54 19.7 °C 9.9 °C 1018.2 hPa North 4.8 km/h 12.9 km/h 53% 0 mm
16:59 19.4 °C 9.6 °C 1018.2 hPa NNE 6.4 km/h 17.7 km/h 53% 0 mm
17:04 19.1 °C 9 °C 1018.5 hPa North 8 km/h 24.1 km/h 52% 0 mm
17:09 18.6 °C 9.1 °C 1018.5 hPa NNW 8 km/h 24.1 km/h 54% 0 mm
17:14 17.8 °C 8.6 °C 1018.5 hPa NNW 8 km/h 19.3 km/h 55% 0 mm
17:19 17.5 °C 8.6 °C 1018.5 hPa NNW 4.8 km/h 9.7 km/h 56% 0 mm
17:24 17.4 °C 9.1 °C 1018.5 hPa NNW 1.6 km/h 12.9 km/h 58% 0 mm
17:34 18.5 °C 9.8 °C 1018.5 hPa NNW 1.6 km/h 8 km/h 57% 0 mm
17:39 18.8 °C 9.6 °C 1018.5 hPa WNW 6.4 km/h 12.9 km/h 55% 0 mm
17:44 18.3 °C 9.1 °C 1018.5 hPa WNW 8 km/h 14.5 km/h 55% 0 mm
17:49 17.9 °C 8.8 °C 1018.5 hPa NW 6.4 km/h 14.5 km/h 55% 0 mm
17:54 18.1 °C 8.9 °C 1018.5 hPa NW 6.4 km/h 14.5 km/h 55% 0 mm
17:59 17.9 °C 9.3 °C 1018.5 hPa NW 6.4 km/h 14.5 km/h 57% 0 mm
18:04 17.9 °C 9.3 °C 1018.5 hPa NNW 6.4 km/h 14.5 km/h 57% 0 mm
18:09 17.8 °C 9.2 °C 1018.5 hPa NNW 4.8 km/h 17.7 km/h 57% 0 mm
18:14 17.6 °C 9 °C 1018.5 hPa West 4.8 km/h 16.1 km/h 57% 0 mm
18:19 17.3 °C 9.2 °C 1018.5 hPa NNW 8 km/h 19.3 km/h 59% 0 mm
18:24 17.6 °C 9.7 °C 1018.5 hPa NW 6.4 km/h 19.3 km/h 60% 0 mm
18:29 17.6 °C 9.5 °C 1018.5 hPa NW 6.4 km/h 16.1 km/h 59% 0 mm
18:34 17.4 °C 9.3 °C 1018.5 hPa NNW 1.6 km/h 14.5 km/h 59% 0 mm
18:39 17.3 °C 9.7 °C 1018.5 hPa Calm   6.4 km/h 61% 0 mm
18:44 17.1 °C 9.5 °C 1018.5 hPa North 4.8 km/h 9.7 km/h 61% 0 mm
18:49 16.9 °C 9.6 °C 1018.5 hPa NNW 3.2 km/h 14.5 km/h 62% 0 mm
18:54 16.8 °C 9.4 °C 1018.5 hPa Calm   9.7 km/h 62% 0 mm
18:59 16.7 °C 9.4 °C 1018.5 hPa North 4.8 km/h 9.7 km/h 62% 0 mm
19:04 16.8 °C 9.7 °C 1018.5 hPa North 3.2 km/h 12.9 km/h 63% 0 mm
19:09 16.8 °C 9.9 °C 1018.5 hPa NNW 1.6 km/h 6.4 km/h 64% 0 mm
19:14 16.7 °C 9.6 °C 1018.5 hPa NNW 6.4 km/h 9.7 km/h 63% 0 mm
19:19 16.6 °C 9.6 °C 1018.8 hPa North 4.8 km/h 12.9 km/h 63% 0 mm
19:24 16.4 °C 9.1 °C 1018.8 hPa North 4.8 km/h 20.9 km/h 62% 0 mm
19:29 16.3 °C 9.1 °C 1018.8 hPa North 4.8 km/h 20.9 km/h 62% 0 mm
19:34 16.3 °C 9 °C 1018.8 hPa North 3.2 km/h 17.7 km/h 62% 0 mm
19:39 16 °C 8.7 °C 1018.8 hPa North 3.2 km/h 11.3 km/h 62% 0 mm
19:44 15.8 °C 8.5 °C 1018.8 hPa North 4.8 km/h 12.9 km/h 62% 0 mm
19:49 15.6 °C 8.6 °C 1018.8 hPa North 4.8 km/h 12.9 km/h 63% 0 mm
19:54 15.5 °C 8.5 °C 1018.8 hPa NNW 4.8 km/h 11.3 km/h 63% 0 mm
19:59 15.3 °C 8.6 °C 1019.2 hPa North 1.6 km/h 8 km/h 64% 0 mm
20:04 15.2 °C 8.4 °C 1019.2 hPa North 4.8 km/h 11.3 km/h 64% 0 mm
20:09 15.1 °C 8.5 °C 1019.2 hPa NNW 4.8 km/h 11.3 km/h 65% 0 mm
20:14 15 °C 8.2 °C 1019.2 hPa North 3.2 km/h 14.5 km/h 64% 0 mm
20:19 14.8 °C 8.3 °C 1019.2 hPa NW 3.2 km/h 14.5 km/h 65% 0 mm
20:24 14.8 °C 8.3 °C 1019.5 hPa North 3.2 km/h 14.5 km/h 65% 0 mm
20:29 14.7 °C 8.2 °C 1019.5 hPa North 3.2 km/h 11.3 km/h 65% 0 mm
20:34 14.6 °C 8.3 °C 1019.9 hPa North 1.6 km/h 11.3 km/h 66% 0 mm
20:39 14.5 °C 8.2 °C 1019.9 hPa NNW 1.6 km/h 8 km/h 66% 0 mm
20:44 14.6 °C 8.3 °C 1019.9 hPa North 4.8 km/h 9.7 km/h 66% 0 mm
20:49 14.6 °C 8.3 °C 1019.9 hPa NNW 4.8 km/h 8 km/h 66% 0 mm
20:54 14.7 °C 8.4 °C 1020.2 hPa NNW 3.2 km/h 11.3 km/h 66% 0 mm
20:59 14.7 °C 8.2 °C 1020.2 hPa NNW 3.2 km/h 11.3 km/h 65% 0 mm
21:04 14.6 °C 8.1 °C 1020.2 hPa NNW 3.2 km/h 8 km/h 65% 0 mm
21:09 14.5 °C 8.2 °C 1020.2 hPa NNW 4.8 km/h 8 km/h 66% 0 mm
21:14 14.4 °C 8.2 °C 1020.2 hPa NNW 6.4 km/h 9.7 km/h 66% 0 mm
21:19 14.4 °C 7.9 °C 1020.5 hPa North 3.2 km/h 8 km/h 65% 0 mm
21:24 14.5 °C 8 °C 1020.5 hPa NNW 3.2 km/h 8 km/h 65% 0 mm
21:29 14.5 °C 7.8 °C 1020.5 hPa North 1.6 km/h 6.4 km/h 64% 0 mm
21:34 14.5 °C 8 °C 1020.5 hPa North 4.8 km/h 6.4 km/h 65% 0 mm
21:39 14.5 °C 7.8 °C 1020.5 hPa NW 1.6 km/h 6.4 km/h 64% 0 mm
21:44 14.4 °C 7.7 °C 1020.5 hPa NW 1.6 km/h 6.4 km/h 64% 0 mm
21:49 14.4 °C 7.4 °C 1020.5 hPa NW 6.4 km/h 11.3 km/h 63% 0 mm
21:54 14.3 °C 7.3 °C 1020.9 hPa NNW 3.2 km/h 11.3 km/h 63% 0 mm
21:59 14.1 °C 7.3 °C 1020.9 hPa NNW 3.2 km/h 9.7 km/h 64% 0 mm
22:04 13.9 °C 7.2 °C 1020.9 hPa NNW 3.2 km/h 11.3 km/h 64% 0 mm
22:09 13.8 °C 7.1 °C 1020.9 hPa NW 3.2 km/h 9.7 km/h 64% 0 mm
22:14 13.7 °C 7.1 °C 1020.9 hPa Calm   9.7 km/h 64% 0 mm
22:19 13.6 °C 7.2 °C 1020.9 hPa Calm   12.9 km/h 65% 0 mm
22:24 13.5 °C 7.1 °C 1020.9 hPa North 3.2 km/h 12.9 km/h 65% 0 mm
22:29 13.3 °C 7.1 °C 1020.9 hPa NNW 3.2 km/h 9.7 km/h 66% 0 mm
22:34 13.2 °C 6.9 °C 1020.9 hPa North 4.8 km/h 14.5 km/h 66% 0 mm
22:39 13.1 °C 6.8 °C 1021.2 hPa NW 4.8 km/h 8 km/h 66% 0 mm
22:44 12.9 °C 6.9 °C 1021.2 hPa North 3.2 km/h 8 km/h 67% 0 mm
22:49 12.8 °C 6.8 °C 1020.9 hPa NNW 6.4 km/h 9.7 km/h 67% 0 mm
22:54 12.7 °C 6.7 °C 1020.9 hPa NNW 3.2 km/h 9.7 km/h 67% 0 mm
22:59 12.6 °C 6.8 °C 1020.9 hPa NNW 3.2 km/h 8 km/h 68% 0 mm
23:04 12.6 °C 6.8 °C 1021.2 hPa NNW 3.2 km/h 8 km/h 68% 0 mm
23:09 12.4 °C 6.7 °C 1021.2 hPa NNW 1.6 km/h 8 km/h 68% 0 mm
23:14 12.3 °C 6.8 °C 1021.2 hPa NNW 1.6 km/h 6.4 km/h 69% 0 mm
23:24 12 °C 6.7 °C 1021.2 hPa Calm   6.4 km/h 70% 0 mm
23:29 11.8 °C 6.7 °C 1021.2 hPa NNW 1.6 km/h 8 km/h 71% 0 mm
23:34 11.8 °C 6.6 °C 1021.2 hPa NNW 1.6 km/h 8 km/h 70% 0 mm
23:39 11.8 °C 6.7 °C 1021.6 hPa NNW 4.8 km/h 8 km/h 71% 0 mm
23:44 11.7 °C 6.6 °C 1021.6 hPa NNW 3.2 km/h 8 km/h 71% 0 mm
23:49 11.7 °C 6.6 °C 1021.6 hPa Calm   6.4 km/h 71% 0 mm
23:54 11.5 °C 6.6 °C 1021.6 hPa NNW 1.6 km/h 6.4 km/h 72% 0 mm
23:59 11.4 °C 6.6 °C 1021.6 hPa NNW 1.6 km/h 8 km/h 72% 0 mm
Buffalo, New York, USA
Compliments of Weather Underground - 2.5 mb